JF7ELG-13 Weather Reports


Display with metric or nautical units.
time (UTC)temp
F
wind
direction
speed
MPH
gust
MPH
rain 1hr
in
rain 24hr
in
rain mn
in
humidity
%
barometer
mb
20181114170715 41 90 0.0 0.0 0.00 0.00 0.00 94 1011.0
20181114164543 40 292 0.0 0.0 0.00 0.00 0.00 91 1011.0
20181114161515 41 90 0.0 0.0 0.00 0.00 0.00 91 1011.0
20181114154514 41 315 0.0 0.0 0.00 0.00 0.00 89 1011.0
20181114151513 43 0 0.0 0.0 0.00 0.00 0.00 89 1011.0
20181114144515 43 270 0.0 0.0 0.00 0.00 0.00 88 1011.0
20181114141514 42 270 0.0 0.0 0.00 0.00 0.00 88 1011.0
20181114134515 43 270 0.0 0.0 0.00 0.00 0.00 87 1011.0
20181114131513 44 270 0.0 0.0 0.00 0.00 0.00 85 1011.0
20181114124512 45 270 0.0 0.0 0.00 0.00 0.00 83 1011.0
20181114121522 45 270 0.0 0.0 0.00 0.00 0.00 81 1011.0
20181114114523 45 270 0.0 0.0 0.00 0.00 0.00 80 1011.0
20181114111522 45 270 0.0 0.0 0.00 0.00 0.00 77 1010.0
20181114104523 45 225 0.0 0.0 0.00 0.00 0.00 76 1010.0
20181114101522 46 225 0.0 0.0 0.00 0.00 0.00 72 1010.0
20181114094522 48 292 0.0 0.0 0.00 0.00 0.00 70 1010.0
20181114091522 49 282 1.0 1.0 0.00 0.00 0.00 73 1010.0
20181114084521 48 116 0.0 0.0 0.00 0.00 0.00 69 1010.0
20181114081513 49 275 0.0 0.0 0.00 0.00 0.00 67 1010.0
20181114074512 51 300 0.0 0.0 0.00 0.00 0.00 61 1009.0
20181114071511 54 270 0.0 0.0 0.00 0.00 0.00 47 1009.0
20181114064513 63 292 0.0 0.0 0.00 0.00 0.00 39 1009.0
20181114061512 67 315 0.0 0.0 0.00 0.00 0.00 36 1009.0
20181114054512 69 253 0.0 0.0 0.00 0.00 0.00 34 1009.0
20181114051511 71 270 0.0 0.0 0.00 0.00 0.00 33 1008.0
20181114044510 74 252 0.0 1.0 0.00 0.00 0.00 32 1008.0
20181114041550 75 240 0.0 0.0 0.00 0.00 0.00 31 1008.0
20181114034551 78 226 1.0 2.0 0.00 0.00 0.00 30 1007.0
20181114031550 79 279 0.0 2.0 0.00 0.00 0.00 30 1008.0
20181114024550 78 284 0.0 1.0 0.00 0.00 0.00 29 1008.0
20181114021551 76 259 1.0 2.0 0.00 0.00 0.00 31 1008.0
20181114014550 74 69 1.0 1.0 0.00 0.00 0.00 32 1008.0
20181114011550 72 219 1.0 2.0 0.00 0.00 0.00 32 1008.0
20181114004548 74 255 1.0 2.0 0.00 0.00 0.00 33 1008.0
20181114001513 72 286 1.0 2.0 0.00 0.00 0.00 35 1008.0
20181113234514 69 294 0.0 1.0 0.00 0.00 0.00 41 1008.0
20181113231513 67 118 0.0 0.0 0.00 0.00 0.00 51 1008.0
20181113224513 55 248 0.0 0.0 0.00 0.00 0.00 70 1007.0
20181113221513 48 90 0.0 0.0 0.00 0.00 0.00 74 1007.0
20181113214512 46 55 0.0 0.0 0.00 0.00 0.00 74 1007.0
20181113211511 43 78 0.0 1.0 0.00 0.00 0.00 79 1007.0
20181113204512 42 56 0.0 0.0 0.00 0.00 0.00 77 1007.0
20181113201538 44 90 0.0 0.0 0.00 0.00 0.00 72 1007.0
20181113194538 47 90 0.0 0.0 0.00 0.00 0.00 66 1006.0
20181113191539 48 0 0.0 0.0 0.00 0.00 0.00 66 1007.0
20181113184538 48 292 0.0 0.0 0.00 0.00 0.00 67 1006.0
20181113181538 48 270 0.0 0.0 0.00 0.00 0.00 68 1006.0
20181113174539 49 118 0.0 0.0 0.00 0.00 0.00 67 1007.0